SL-12 R/B(2)

Satellite information

Favourite Embed

Satellite Type and Status

ROCKET BODYIN ORBIT

Key statistics

Satellite SL-12 R/B(2) at a glance.

Uptime

14552

Days in orbit

Revolutions

≈ 2.1

Per day

Orbit

MEO

Medium Earth Orbit

Inclination

66.2

Latest

Satellite identification and parameters

Extended collection of information and parameters for SL-12 R/B(2).

Object identification

Identified? True

Debris? False

Object name: SL-12 R/B(2)

International designator: 1985-118F

Object number (NORAD): 16404

Object ID (CCSDS): 16404

Country: COMMONWEALTH OF INDEPENDENT STATES (CIS)

Current information (Y/N): Y

RCS size: LARGE

Orbital parameters

Period: 675.532 minutes

Inclination: 66.15 deg

SMA: 25502.983 km

Apoapsis: 19141.321 km

Periapsis: 19108.376 km

RAAN: 331.7597 deg

Eccentricy: 0.0006459

Argument of periapsis: 7.0722 deg

Mean anomaly: 165.2233 deg

Mean motion: 2.1316519 rev/day

Mean motion (dot): -0.00000046 rev/day2

B* drag term: 0.0 1/REarth

Two-line elements (TLE)

Creation date: Oct. 25, 2025, 3:11 a.m.

Reference frame: TEME

Reference center: EARTH

Epoch: Oct. 24, 2025, 3:08 p.m. UTC

TLE line 0: 0 SL-12 R/B(2)

TLE line 1: 1 16404U 85118F 25297.63115583 -.00000046 00000-0 00000-0 0 9996

TLE line 2: 2 16404 66.1500 331.7597 0006459 7.0722 165.2233 2.13165190310275

Live tracking on map

Real-time ground track for satellite SL-12 R/B(2).

In-orbit conjunctions

A list of the most updated potential collisions computed for object SL-12 R/B(2).

Target Orbit TCA Probability of collision Miss distance Type
SL-12 R/B(2) MEO 2025-09-29 16:37:34 TBA 3843.0 (m) ROCKET BODY
SL-12 R/B(2) MEO 2025-05-15 00:15:22 TBA 3835.0 (m) ROCKET BODY
SL-12 R/B(2) MEO 2025-02-04 17:49:03 TBA 1553.0 (m) ROCKET BODY

Associated space launch

GLONASS navigation satellites

SL-12 R/B(2) was lifted into orbit during the mission ‘Proton | Uragan 12 & 13’, on board a Proton space rocket.

The launch took place on Dec. 24, 1985, 9:43 p.m. from 200/39 (200L).

For more information about the launch, click the button.

Launch to space Proton | Uragan 12 & 13
Proton | Uragan 12 & 13

Agency: N/A

Status: Launch Successful

Launch date: Dec. 24, 1985, 9:43 p.m. UTC

Rocket: Proton

Launch pad: 200/39 (200L)

Location: Baikonur Cosmodrome, Republic of Kazakhstan

...

Latest news about this satellite

There are no fresh news available about this satellite. Check back as we update our databases every day.


Newsletter sign-up

Weekly statistics, charts and insights to help you stay on top of the space industry.